Change the Weather History Date:

Tuesday, July 8, 2014

  Actual Average Record
Temperature  
Mean Temperature 56 °F -  
Max Temperature 61 °F 70 °F 89 °F (1988)
Min Temperature 52 °F 55 °F 43 °F (1985)
Degree Days  
Heating Degree Days 8    
Growing Degree Days 6 (Base 50)    
Moisture  
Dew Point 53 °F    
Average Humidity 92    
Maximum Humidity 100    
Minimum Humidity 75    
Precipitation  
Precipitation 0.71 in - - ()
Sea Level Pressure  
Sea Level Pressure 29.59 in    
Wind  
Wind Speed 7 mph (NNW)    
Max Wind Speed 15 mph    
Max Gust Speed 22 mph    
Visibility 9 miles    
Events Rain    
Averages and records for this station are not official NWS values.
T = Trace of Precipitation, MM = Missing Value Source: NWS Daily Summary

Daily Weather History Graph

Daily Weather History Graph

Search for Another Location

Airport or City:

Trip Planner

Search our weather history database for the weather conditions in past years. The results will help you decide how hot, cold, wet, or windy it might be!

Date:

Astronomy

Jul. 08, 2014 Rise Set
Actual Time 5:57 AM EDT 9:29 PM EDT
Civil Twilight 5:19 AM EDT 10:07 PM EDT
Nautical Twilight 4:29 AM EDT 10:57 PM EDT
Astronomical Twilight 3:23 AM EDT 12:02 AM EDT
Moon 5:30 PM EDT (7/8) 2:36 AM EDT (7/8)
Length of Visible Light 16h 47m
Length of Day
15h 32m
Waxing Gibbous, 81% of the Moon is Illuminated
Jul 8
Waxing Gibbous
Jul 12
Full
Jul 18
Last Quarter
Jul 26
New
Aug 3
First Quarter

Hourly Weather History & Observations

Time (EDT) Temp. Dew Point Humidity Pressure Visibility Wind Dir Wind Speed Gust Speed Precip Events Conditions
12:16 AM 61.2 °F 58.1 °F 90% 29.59 in 10.0 mi South 8.1 mph - N/A   Clear
12:37 AM 60.8 °F 58.3 °F 91% 29.59 in 10.0 mi West 5.8 mph - N/A   Clear
12:56 AM 61.0 °F 57.7 °F 89% 29.59 in 10.0 mi Calm Calm - N/A   Clear
1:17 AM 58.6 °F 57.6 °F 96% 29.59 in 10.0 mi North 4.6 mph - N/A   Clear
1:37 AM 57.6 °F 57.2 °F 99% 29.57 in 10.0 mi NNW 5.8 mph - N/A   Clear
1:56 AM 57.6 °F 57.0 °F 98% 29.57 in 10.0 mi NNE 8.1 mph - N/A   Clear
2:17 AM 57.0 °F 56.3 °F 97% 29.56 in 10.0 mi NNE 6.9 mph - N/A   Clear
2:37 AM 56.3 °F 54.7 °F 94% 29.55 in 10.0 mi NNE 6.9 mph - N/A   Clear
2:56 AM 55.8 °F 54.1 °F 94% 29.56 in 10.0 mi NNE 5.8 mph - N/A   Clear
3:17 AM 55.4 °F 54.0 °F 95% 29.56 in 10.0 mi NNE 4.6 mph - N/A   Clear
3:37 AM 55.9 °F 54.5 °F 95% 29.55 in 10.0 mi NE 5.8 mph - N/A   Mostly Cloudy
3:56 AM 55.8 °F 54.0 °F 94% 29.55 in 10.0 mi NE 6.9 mph - N/A   Overcast
4:17 AM 56.3 °F 54.1 °F 92% 29.56 in 10.0 mi NE 4.6 mph - N/A   Overcast
4:37 AM 55.9 °F 54.5 °F 95% 29.55 in 5.0 mi NE 8.1 mph - 0.02 in Rain Rain
4:56 AM 55.6 °F 55.0 °F 98% 29.55 in 5.0 mi East 4.6 mph - 0.08 in Rain Rain
5:17 AM 55.2 °F 54.5 °F 97% 29.55 in 3.0 mi NNE 4.6 mph - 0.06 in Rain Heavy Rain
5:36 AM 54.7 °F 54.7 °F 100% 29.54 in 3.0 mi NNE 8.1 mph - 0.13 in Rain Light Rain
5:57 AM 54.7 °F 54.7 °F 100% 29.54 in 4.0 mi ENE 6.9 mph - 0.22 in Rain Light Rain
6:17 AM 54.9 °F 54.9 °F 100% 29.54 in 10.0 mi ENE 6.9 mph - 0.07 in   Overcast
6:36 AM 55.4 °F 55.4 °F 100% 29.52 in 10.0 mi East 6.9 mph - 0.13 in   Overcast
6:57 AM 55.4 °F 55.4 °F 100% 29.55 in 7.0 mi North 6.9 mph - 0.18 in   Overcast
7:17 AM 55.2 °F 55.2 °F 100% 29.54 in 3.0 mi North 3.5 mph - 0.04 in Rain Light Rain
7:36 AM 55.0 °F 55.0 °F 100% 29.53 in 5.0 mi North 9.2 mph - 0.08 in Rain Rain
7:57 AM 53.8 °F 53.8 °F 100% 29.52 in 10.0 mi NNE 9.2 mph - 0.12 in Rain Light Rain
8:17 AM 53.8 °F 53.8 °F 100% 29.52 in 10.0 mi NE 6.9 mph - 0.03 in Rain Light Rain
8:36 AM 54.0 °F 54.0 °F 100% 29.51 in 10.0 mi East 6.9 mph - 0.05 in Rain Light Rain
8:57 AM 54.5 °F 54.5 °F 100% 29.51 in 10.0 mi ENE 3.5 mph - 0.08 in   Overcast
9:17 AM 55.0 °F 55.0 °F 100% 29.52 in 10.0 mi NNE 3.5 mph - N/A   Overcast
9:36 AM 54.7 °F 54.7 °F 100% 29.52 in 10.0 mi North 9.2 mph - N/A   Overcast
9:57 AM 52.9 °F 52.9 °F 100% 29.52 in 4.0 mi North 12.7 mph 16.1 mph N/A   Overcast
10:17 AM 52.7 °F 52.7 °F 100% 29.52 in 7.0 mi NNE 8.1 mph - N/A   Overcast
10:37 AM 52.7 °F 52.7 °F 100% 29.53 in 10.0 mi North 5.8 mph - N/A   Overcast
10:57 AM 53.2 °F 53.2 °F 100% 29.53 in 5.0 mi North 5.8 mph - N/A   Overcast
11:16 AM 53.6 °F 53.6 °F 100% 29.53 in 5.0 mi North 8.1 mph - 0.01 in Rain Light Rain
11:37 AM 53.4 °F 53.4 °F 100% 29.54 in 3.0 mi NNW 6.9 mph - 0.01 in   Drizzle
11:57 AM 52.7 °F 52.7 °F 100% 29.55 in 4.0 mi North 6.9 mph - 0.02 in   Drizzle
12:17 PM 52.7 °F 52.7 °F 100% 29.55 in 7.0 mi NNW 5.8 mph - N/A   Overcast
12:37 PM 53.1 °F 53.1 °F 100% 29.56 in 7.0 mi NNW 6.9 mph - 0.01 in Rain Rain
12:56 PM 53.6 °F 53.6 °F 100% 29.56 in 7.0 mi NNW 5.8 mph - 0.01 in   Drizzle
1:17 PM 53.8 °F 53.6 °F 99% 29.56 in 10.0 mi NNW 3.5 mph - N/A   Overcast
1:36 PM 54.1 °F 53.8 °F 99% 29.57 in 10.0 mi NNW 5.8 mph - N/A   Overcast
1:57 PM 54.7 °F 54.1 °F 98% 29.57 in 10.0 mi North 3.5 mph - N/A   Overcast
2:17 PM 55.4 °F 54.5 °F 97% 29.57 in 10.0 mi NW 6.9 mph - N/A   Overcast
2:36 PM 56.8 °F 55.6 °F 96% 29.57 in 10.0 mi NW 5.8 mph - N/A   Overcast
2:57 PM 56.1 °F 54.0 °F 92% 29.58 in 10.0 mi WNW 6.9 mph - N/A   Overcast
3:17 PM 57.0 °F 54.1 °F 90% 29.59 in 10.0 mi WNW 5.8 mph - N/A   Overcast
3:36 PM 58.3 °F 54.7 °F 88% 29.59 in 10.0 mi West 9.2 mph - N/A   Overcast
3:57 PM 58.3 °F 55.2 °F 90% 29.60 in 10.0 mi WSW 5.8 mph - N/A   Mostly Cloudy
4:17 PM 59.4 °F 54.5 °F 84% 29.60 in 10.0 mi WNW 9.2 mph - N/A   Overcast
4:37 PM 60.3 °F 54.1 °F 80% 29.61 in 10.0 mi WNW 8.1 mph 17.3 mph N/A   Overcast
5:17 PM 59.4 °F 51.8 °F 76% 29.62 in 10.0 mi WNW 15.0 mph 18.4 mph N/A   Scattered Clouds
5:37 PM 58.6 °F 50.9 °F 75% 29.63 in 10.0 mi WNW 15.0 mph 19.6 mph N/A   Scattered Clouds
5:57 PM 57.4 °F 50.4 °F 77% 29.64 in 10.0 mi NW 12.7 mph 20.7 mph N/A   Scattered Clouds
6:17 PM 58.1 °F 50.9 °F 77% 29.65 in 10.0 mi NW 8.1 mph 17.3 mph N/A   Scattered Clouds
6:37 PM 58.1 °F 50.9 °F 77% 29.65 in 10.0 mi NW 9.2 mph - N/A   Mostly Cloudy
6:57 PM 56.3 °F 50.0 °F 79% 29.66 in 10.0 mi WNW 12.7 mph 18.4 mph N/A   Overcast
7:17 PM 56.3 °F 50.0 °F 79% 29.67 in 10.0 mi NW 12.7 mph 19.6 mph N/A   Overcast
7:37 PM 55.0 °F 48.7 °F 79% 29.68 in 10.0 mi NW 12.7 mph 21.9 mph N/A   Overcast
7:57 PM 53.6 °F 48.2 °F 82% 29.69 in 10.0 mi NW 9.2 mph 19.6 mph N/A   Overcast
8:17 PM 53.6 °F 48.2 °F 82% 29.69 in 10.0 mi WNW 11.5 mph 17.3 mph N/A   Overcast
8:37 PM 53.6 °F 48.0 °F 81% 29.69 in 10.0 mi WNW 8.1 mph 16.1 mph N/A   Overcast
8:57 PM 53.2 °F 47.7 °F 81% 29.69 in 10.0 mi WNW 12.7 mph - N/A   Overcast
9:17 PM 53.1 °F 47.8 °F 82% 29.70 in 10.0 mi West 12.7 mph - N/A   Overcast
9:37 PM 52.9 °F 47.5 °F 82% 29.70 in 10.0 mi West 11.5 mph - N/A   Overcast
9:57 PM 52.9 °F 47.7 °F 82% 29.70 in 10.0 mi WNW 10.4 mph - N/A   Overcast
10:17 PM 52.9 °F 47.7 °F 82% 29.72 in 10.0 mi WNW 10.4 mph - N/A   Overcast
10:37 PM 53.2 °F 47.8 °F 82% 29.72 in 10.0 mi WNW 13.8 mph 19.6 mph N/A   Overcast
10:57 PM 53.4 °F 48.2 °F 82% 29.73 in 10.0 mi West 11.5 mph 18.4 mph N/A   Overcast
11:17 PM 53.2 °F 48.2 °F 83% 29.73 in 10.0 mi WNW 9.2 mph - N/A   Overcast
11:37 PM 53.1 °F 48.4 °F 84% 29.73 in 10.0 mi WNW 9.2 mph - N/A   Overcast
11:57 PM 52.7 °F 48.2 °F 85% 29.73 in 10.0 mi WNW 11.5 mph 16.1 mph N/A   Overcast